{"data":{"norad_id":64738,"intl_designator":"2025-144Q","name":"STARLINK-34597","alt_names":[],"object_type":"PAYLOAD","status":"ACTIVE","operator":null,"country":"US","launch_date":"2025-07-02","launch_site_code":"AFETR","launch_vehicle":null,"mission":null,"orbit_class":"UNKNOWN","rcs_meters":null,"size_class":null,"mass_kg":null,"dimensions":null,"purposes":["comms"],"wikipedia_slug":null,"has_3d_model":false,"image_url":null,"decayed_at":null,"tle_current":{"epoch":"2026-09-20T17:51:22.909824Z","epoch_age_seconds":106866,"freshness":"FRESH","line1":"1 64738U 25144Q   26263.74401516  .00014908  00000+0  45143-3 0  9992","line2":"2 64738  53.1601 352.3304 0001746  47.5389 312.5761 15.34403138 69596","mean_motion":15.34403138,"eccentricity":0.0001746,"inclination_deg":53.1601,"raan_deg":352.3304,"arg_perigee_deg":47.5389,"mean_anomaly_deg":312.5761,"bstar":0.00045143,"rev_number":6959,"period_min":93.847566153765,"perigee_km":461.49950434821,"apogee_km":463.88832250318,"semimajor_km":6840.8309134257,"source":"CELESTRAK","updated_at":"2026-09-21T09:00:35.411769Z"}}}